Regional Weather Roundup
Issued by NWS New Orleans/Baton Rouge, LA

Home | Current Version | Previous Version | Graphics & Text | Print | Product List | Glossary On
Versions: 1 2 3 4 5 6 7 8 9 10 11 12 13 14 15 16 17 18 19 20 21 22 23 24 25 26 27 28 29 30 31 32 33 34 35 36 37 38 39 40 41 42 43 44 45 46 47 48 49 50
030
ASUS44 KLIX 020305
RWRLIX
NEW ORLEANS REGIONAL WEATHER ROUNDUP
NATIONAL WEATHER SERVICE NEW ORLEANS LA
900 PM CST SUN MAR 01 2015

NOTE: "FAIR" INDICATES FEW OR NO CLOUDS BELOW 12,000 FEET WITH NO
      SIGNIFICANT WEATHER AND/OR OBSTRUCTIONS TO VISIBILITY.
      SKY/WX - SKY CONDITION AND SIGNIFICANT WEATHER.
      TMP - AIR TEMPERATURE.     DP    - DEWPOINT TEMPERATURE.
      RH  - RELATIVE HUMIDITY.   PRES  - PRESSURE.
      HI  - HEAT INDEX.          WCI   - WIND CHILL INDEX.

*  THESE STATIONS ARE NOT NWS OR FAA STATIONS AND ARE NOT UNDER
   NWS QUALITY CONTROL.

LAZ038-040-048-061>063-065>067-069-020400-
SOUTHEAST LOUISIANA

CITY           SKY/WX    TMP DP  RH WIND       PRES   REMARKS
N.O. AUDUBON     N/A     58  58 100 MISG        N/A
N.O. INTL ARPT CLOUDY    58  56  93 E9        30.29R FOG
N.O. LAKEFRONT FOG       58  55  90 E10       30.31R VSB 3/4
SLIDELL        FOG       61  60  97 E5        30.31R VSB 1
BATON ROUGE    TSTM      63  62  97 NE8       30.29R FOG
BOOTHVILLE     FOG       62  62 100 E7        30.29R VSB 1/4
BELLE CHASSE   FOG       59  57  93 NE5       30.28R VSB 1/2
BOGALUSA*      RAIN      62  59  89 NE9       30.35R
GALLIANO*      CLOUDY    64  62  94 CALM      30.28R FOG
NEW ROADS*     RAIN      64  63  97 E6        30.29R
GONZALES*      CLOUDY    58  58 100 NE8       30.24F
HAMMOND*       HVY RAIN  63  61  94 E7        30.31R
HOUMA*         CLOUDY    66  64  93 NE7       30.28R FOG
PORT FOURCHON* CLOUDY    66  66 100 E10       30.30R FOG

$$

MSZ070-080>082-020400-
SOUTHERN MISSISSIPPI

CITY           SKY/WX    TMP DP  RH WIND       PRES   REMARKS
MCCOMB         RAIN      62  61  96 SE9       30.29R FOG
GULFPORT       CLOUDY    60  59  96 E10       30.31R FOG
BILOXI         CLOUDY    59  59 100 E9        30.31R FOG
PASCAGOULA     CLOUDY    58  57  97 E6        30.33R FOG

$$

COASTAL OBSERVATIONS
LAKE AND NEARSHORE STATIONS

STATION/POSITION TIME  TEMP    WIND        PRES    WAVE
                       AIR SEA DIR/SP/G            HT/PER
                 (UTC) (F)     (DEG/KT/KT) (MB)    (FT/S)
PASCAGOULA       0300   58      60/  8/ 11 1026.4
WAVELAND YACHT   0300   60 53   90/  7/ 10 1026.1
GRAND ISLE       0300   63 59   90/  5/  9 1025.5
SOUTHWEST PASS   0300   62 48  110/ 12/ 13 1025.4
NEW CANAL        0300   57      80/  3/  8 1025.9
SHELL BEACH      0300   56 55   80/ 11/ 11 1025.6

OFFSHORE STATIONS

STATION/POSITION TIME  TEMP    WIND        PRES    WAVE
                       AIR SEA DIR/SP/G            HT/PER
                 (UTC) (F)     (DEG/KT/KT) (MB)    (FT/S)
64 S DAUPHIN ISL 0221   70 71  120/ 14/ 16 1026.0    4/ 7

$$




USA.gov is the U.S. government's official web portal to all federal, state and local government web resources and services.